Starlink 36210

operational
NORAD ID: 67174 Int'l Des: 2025-303 Owner: SPXS Country: US Constellation: starlink
LEOCIRCULAR

Starlink 36210について

説明を読み込み中...

リアルタイム位置

3D地球を読み込み中...

次回通過

高度履歴

Altitude vs Time

uPlot chart will show altitude changes over time

軌道要素

1 67174C 25303M 25352.76645833 .00704140 00000+0 10353-2 0 3529
2 67174 43.0047 61.7907 0007391 286.6005 256.0838 16.03284873 17
Epoch: Dec 18, 2025 • Age: 50 hours

現在のステータス

高度 264.1 km
速度 7.75 km/s
衛星直下点 -30.55°S, 109.2°W
打ち上げ日 Dec 17, 2025
運用期間 2 days
タイプ internet

技術仕様

分類 Payload
質量 575.00 kg
乾燥質量 530.00 kg
総質量 575.00 kg
長さ 0.30 m
直径 4.10 m
スパン 29.00 m
形状 Box + pan
製造者 SPXS
バスタイプ Starlink V2MO
フェーズステータス In Orbit
所有者/国 SPXS/US

大規模コンステレーション

Loading constellations...